User: anonymous   Login
Location: Les Thiberg�res
(47.8554°N, 1.0978°W)
Time: 06:32:29
(UTC+00:00)
Language:

STARLINK-1171 - Orbit

View from above orbital plane
View from above orbital plane
View from above satellite
View from above satellite

Ground track
Ground track

The orbit data is extracted from the following two-line orbital elements,

1 45062C 20006U   20152.81020264 -.00002368  00000-0 -16210-3 0  1523
2 45062  52.9998  29.2592 0001660  86.3490 338.1546 15.05597893    16
Epoch (UTC): 31 May 2020 19:26:41
Eccentricity: 0.0001660
inclination: 52.9998°
perigee height: 548 km
apogee height: 551 km
right ascension of ascending node: 29.2592°
argument of perigee: 86.3490°
revolutions per day: 15.05597893
mean anomaly at epoch: 338.1546°
orbit number at epoch: 1

The dashed part of the orbit path shows where the satellite is in the earth's shadow,  

DLR